Location: Sweet Grass
(48.9965°N, 111.9649°W)
Time: 03:21:30
(UTC+00:00)

Envisat - Pass Details

Date: 09 December 2022
Orbit: 763 x 765 km, 98.2° (Epoch: 28 January)

Event Time Altitude Azimuth Distance (km) Brightness Sun altitude
Rises 12:15:23 0° 11° (N) 3,246 6.3 -27.5°
Reaches altitude 10° 12:17:44 10° 7° (N) 2,315 5.5 -27.1°
Enters shadow 12:19:21 21° 2° (N) 1,700 4.7 -26.8°
